Wind_Speed
82 85 94 96 92 89 90 94 91 95 95 96 94 93 91 93 84 87 94 94 96 98 96 92 89 87 85 79 79 78 80 76 70 65 59 60 56 54 55 56 55 51 50 48 48
70 76 79 79 82 85 83 86 87 88 92 89 88 90 89 87 87 87 87 85 86 89 90 87 85 87 87 84 82 82 86 78 68 64 65 64 59 57 57 55 57 54 51 49 47
61 65 69 70 72 74 75 74 77 80 81 82 80 80 82 81 81 86 81 82 78 79 82 82 80 78 81 80 77 83 84 76 71 64 64 63 58 59 58 54 54 55 53 49 43
48 52 57 59 61 66 67 68 67 71 72 74 72 74 73 74 76 75 75 75 73 70 73 77 83 85 80 81 80 83 78 74 69 65 64 64 58 60 59 57 55 52 49 48 41
40 44 48 51 55 59 61 62 63 63 64 66 66 66 66 68 68 69 69 66 66 63 64 65 70 79 83 82 78 77 72 71 69 69 66 65 60 59 57 57 52 50 50 41 41
34 36 40 44 48 53 55 58 58 58 59 60 61 62 62 64 62 62 60 63 64 59 58 60 62 65 68 74 82 82 77 74 70 71 70 67 65 61 57 56 55 49 43 43 40
27 31 35 39 43 46 50 53 54 54 56 55 57 58 59 58 55 54 56 57 55 59 57 57 57 58 61 65 67 70 76 77 69 71 69 70 68 66 64 61 58 51 47 40 39
23 26 30 35 39 44 48 53 51 52 51 51 53 55 55 51 50 48 50 53 55 56 56 56 53 55 58 61 63 60 61 61 62 62 61 63 56 58 58 56 55 50 48 41 41
24 23 27 33 38 41 47 47 48 49 48 50 53 53 51 51 47 45 48 50 54 55 58 57 57 58 58 59 55 51 51 51 54 54 57 53 54 57 59 58 52 50 48 44 45
26 22 25 29 34 38 42 47 49 49 48 50 52 51 50 47 43 45 45 46 48 49 48 49 53 56 57 58 55 53 56 53 51 53 56 53 57 60 60 59 54 50 50 45 46
28 23 24 28 30 36 41 46 46 47 50 51 51 50 48 47 45 42 42 43 45 45 48 50 51 52 62 65 62 59 57 57 53 51 53 53 59 62 63 62 56 53 51 51 47
29 24 23 28 28 34 41 45 45 49 50 51 51 51 47 45 47 46 46 47 48 48 50 48 52 62 64 66 64 61 55 51 53 50 53 56 60 63 62 61 59 57 54 52 49
34 25 21 26 29 31 39 44 44 42 49 52 52 51 46 44 43 46 47 48 49 48 51 52 59 57 57 62 62 56 53 53 57 59 59 62 62 63 63 61 60 58 57 55 53
36 28 21 23 28 31 35 44 45 43 47 52 52 52 48 45 44 44 46 48 47 48 46 49 50 52 54 56 59 58 58 59 62 62 61 65 60 61 64 61 60 59 58 57 56
40 30 23 21 25 29 33 45 46 45 49 53 53 50 49 48 48 47 46 45 45 41 40 46 45 51 56 61 61 64 62 65 67 64 65 62 62 60 60 60 61 60 60 61 61
50 34 25 20 24 28 34 42 47 47 49 53 55 51 50 50 50 48 45 44 41 35 38 36 38 46 58 63 64 68 65 67 67 65 59 62 62 64 61 62 62 61 61 63 64
59 44 29 22 23 28 35 43 48 45 47 55 56 54 52 52 53 49 45 42 37 33 35 35 36 43 54 60 62 65 65 65 65 61 54 64 65 61 61 63 62 59 62 65 67
75 51 37 25 23 27 34 39 44 48 49 54 59 58 55 54 52 50 46 41 37 33 34 31 35 43 50 56 60 66 68 66 66 63 64 70 63 60 62 63 62 63 66 68 70
85 65 43 32 24 28 33 38 49 56 54 54 59 62 60 57 55 52 47 45 40 36 34 34 34 40 48 56 62 65 65 68 67 66 67 65 61 62 63 64 66 68 68 69 69
95 77 53 36 29 27 33 37 44 57 63 61 60 63 63 60 59 56 52 47 43 40 39 38 37 38 45 53 59 62 67 70 67 67 66 65 65 63 67 70 71 72 70 70 71
94 86 65 42 32 30 34 39 43 51 62 67 65 63 65 64 62 59 55 51 49 47 45 43 42 42 44 46 53 59 64 68 69 70 68 67 67 69 70 72 73 73 73 73 74
99 92 75 51 36 32 35 39 44 47 58 67 70 69 66 68 68 65 61 58 55 53 51 50 48 47 46 49 51 55 59 65 69 69 71 71 70 70 73 75 76 77 77 76 77
106 97 81 58 42 33 35 39 43 49 51 64 74 74 70 70 70 69 68 64 62 60 57 55 51 52 52 51 51 52 54 58 63 68 71 74 71 76 76 77 78 78 80 81 81
108 102 92 64 48 38 34 40 44 48 54 57 67 77 77 76 73 71 71 69 69 66 64 62 58 55 54 55 58 59 60 61 63 66 68 71 74 76 79 81 82 82 83 84 84
113 107 96 73 54 44 38 38 45 50 52 58 63 70 79 82 80 77 75 73 73 72 70 68 65 63 62 60 61 62 64 66 68 69 70 69 72 75 77 79 81 82 85 86 88
113 111 100 77 62 48 41 41 43 49 53 56 64 70 72 80 87 83 80 78 79 76 75 75 70 67 67 68 67 67 67 68 70 71 71 73 75 77 80 82 83 86 87 89 91
120 111 104 81 64 53 43 41 45 46 51 57 61 65 72 75 82 86 89 85 83 80 79 79 79 77 74 73 72 73 70 71 72 73 74 74 75 78 80 83 86 88 91 93 95
Wind_Direction
259 258 255 254 254 253 252 253 254 253 254 256 258 257 257 258 257 255 250 248 249 247 245 245 246 245 247 247 250 251 255 257 256 259 260 261 261 262 263 267 269 277 280 284 289
258 256 256 254 252 252 251 251 252 251 250 251 251 253 252 252 254 253 251 251 246 246 244 248 245 245 247 248 249 252 253 254 256 259 260 259 259 260 262 265 270 275 278 283 288
262 257 255 253 251 249 249 247 249 248 248 247 246 248 248 249 248 248 250 249 249 245 245 240 243 245 246 247 248 250 251 254 257 258 259 258 259 258 258 262 266 271 277 282 282
262 255 252 250 248 247 247 245 244 245 246 247 247 246 245 244 245 245 247 248 249 248 248 246 243 240 243 246 246 248 252 253 253 251 255 255 256 257 257 261 264 271 273 279 276
264 256 251 247 243 243 241 242 242 242 244 242 244 242 243 242 243 245 246 246 246 245 244 243 242 242 243 244 242 245 247 246 247 249 248 251 254 253 257 260 262 266 272 268 272
267 255 247 243 239 238 237 238 239 240 239 240 240 240 239 241 241 244 239 239 243 244 241 244 244 241 242 243 243 244 240 244 246 247 248 247 249 251 255 257 259 262 261 269 264
272 259 247 241 239 238 237 235 234 236 237 236 236 237 238 239 240 240 239 237 237 237 241 240 242 241 241 242 244 244 245 245 247 246 245 246 248 253 256 257 257 258 260 258 258
281 263 248 239 234 234 233 230 232 232 233 232 231 234 235 235 235 234 234 237 236 238 239 242 241 242 243 244 243 243 243 242 241 239 240 243 242 245 245 247 245 247 253 247 248
297 269 253 243 235 232 233 230 227 229 227 227 227 228 232 233 234 233 235 237 238 240 240 243 242 242 241 242 241 241 242 238 237 235 232 229 232 234 232 233 235 244 244 244 244
305 279 260 245 237 229 232 229 226 223 221 221 225 226 231 230 230 234 236 238 240 239 239 239 240 240 242 242 239 235 233 230 229 229 227 224 228 229 232 233 234 240 237 241 241
316 289 265 249 241 232 228 231 227 224 220 218 222 224 228 231 231 234 235 233 235 238 239 240 241 241 237 234 231 228 228 229 226 227 228 222 225 229 229 231 230 235 238 240 236
325 300 273 254 240 233 226 229 226 222 219 216 217 221 224 225 228 230 234 236 238 239 242 243 242 237 235 233 230 227 227 228 230 228 226 223 226 228 228 229 231 231 232 232 232
335 313 279 260 245 232 229 228 227 222 218 214 213 218 220 225 229 234 236 239 242 243 244 242 241 237 234 231 229 226 226 225 225 225 220 221 224 226 226 227 229 230 232 232 230
339 324 292 264 250 234 227 226 229 221 216 213 214 216 218 223 227 233 236 242 244 247 247 247 243 236 234 227 224 221 222 221 223 226 220 219 224 226 227 227 228 230 233 234 233
344 330 307 273 250 239 221 222 226 221 216 215 215 217 219 226 229 231 237 241 244 251 252 248 239 229 224 224 221 223 221 219 220 224 221 221 221 228 230 231 230 231 233 235 236
350 337 319 285 255 238 225 221 225 223 217 216 215 218 221 223 229 230 234 239 245 253 255 252 240 232 224 223 222 223 220 219 220 224 222 224 222 228 229 230 231 233 235 237 237
359 345 329 301 264 243 229 222 219 224 216 214 217 218 222 225 228 229 231 236 242 250 256 249 236 226 223 222 221 222 220 221 222 224 223 224 224 227 231 233 234 236 236 238 239
0 351 334 312 278 252 240 228 227 226 219 216 217 218 222 225 227 228 229 236 239 243 252 248 239 230 225 222 220 218 218 220 221 221 221 225 221 224 231 233 235 237 238 239 240
1 354 342 318 291 261 248 235 219 221 228 219 219 220 221 226 227 229 230 233 235 241 245 245 240 233 230 226 222 220 220 222 222 223 224 228 225 227 233 236 238 238 240 242 244
360 357 344 329 300 271 253 247 228 221 223 226 222 222 223 226 227 228 230 232 233 234 237 239 237 237 233 230 227 225 224 225 224 225 226 226 228 228 233 236 238 241 243 244 246
358 356 348 332 310 280 259 245 242 226 225 224 227 223 223 225 228 229 228 229 232 233 233 234 234 234 234 236 234 230 229 229 226 225 226 226 228 231 235 238 241 244 245 246 247
356 355 350 337 318 290 267 253 245 238 227 226 225 229 223 224 227 228 228 229 229 231 232 234 234 233 234 234 235 235 234 235 231 228 228 228 228 233 236 239 241 243 245 247 250
353 352 349 340 322 300 275 259 248 242 233 226 226 228 229 228 226 229 233 229 231 230 232 233 233 235 235 236 238 241 240 240 239 238 234 231 227 232 235 239 242 244 246 248 250
352 350 348 341 327 306 282 265 253 246 239 232 226 227 226 229 231 231 230 233 235 232 233 233 234 233 235 237 237 237 238 239 241 240 239 237 235 235 238 239 241 244 246 249 250
350 348 345 342 330 312 290 268 256 248 242 238 235 225 226 226 228 230 231 233 234 235 236 236 234 234 232 234 238 241 242 244 244 243 243 242 240 241 243 244 245 246 248 249 250
347 347 341 339 330 317 296 274 259 253 245 240 235 234 228 226 228 227 230 232 234 235 238 238 235 237 238 236 235 238 240 242 245 247 249 248 248 247 247 248 249 250 251 252 253
346 345 339 336 329 320 301 280 265 254 248 242 239 236 233 229 227 228 229 230 231 234 238 240 241 236 237 239 241 241 243 244 246 247 248 250 251 252 252 253 253 253 253 253 255
Height
10495 10497 10501 10506 10513 10517 10522 10530 10537 10543 10550 10557 10566 10572 10580 10588 10595 10603 10605 10616 10624 10629 10634 10642 10649 10655 10660 10666 10672 10676 10675 10684 10692 10703 10705 10703 10707 10709 10708 10711 10711 10712 10713 10714 10711
10469 10472 10477 10483 10488 10494 10501 10509 10516 10524 10531 10538 10545 10553 10562 10569 10577 10580 10589 10598 10603 10611 10618 10626 10636 10641 10647 10652 10660 10660 10658 10673 10682 10690 10692 10692 10699 10697 10699 10702 10703 10704 10705 10706 10705
10446 10449 10454 10460 10469 10473 10482 10490 10497 10505 10513 10521 10527 10535 10543 10550 10557 10559 10574 10577 10584 10592 10602 10611 10619 10625 10632 10639 10640 10641 10645 10661 10674 10678 10679 10679 10689 10687 10689 10692 10694 10696 10698 10698 10698
10428 10431 10436 10442 10450 10457 10465 10474 10482 10489 10497 10505 10512 10521 10527 10534 10539 10546 10555 10560 10569 10577 10584 10593 10600 10608 10615 10621 10623 10623 10640 10649 10661 10664 10666 10667 10675 10677 10680 10682 10685 10688 10689 10690 10690
10414 10417 10422 10427 10433 10440 10449 10458 10466 10474 10483 10489 10497 10504 10511 10518 10526 10533 10541 10547 10555 10562 10570 10576 10583 10590 10597 10601 10607 10614 10627 10635 10644 10649 10654 10656 10664 10666 10671 10672 10677 10680 10681 10681 10682
10403 10406 10410 10415 10421 10426 10436 10444 10453 10461 10469 10477 10485 10491 10498 10504 10514 10520 10528 10535 10543 10550 10557 10562 10567 10575 10581 10584 10590 10603 10614 10622 10629 10635 10640 10645 10651 10654 10660 10663 10668 10671 10672 10673 10674
10395 10397 10400 10404 10411 10417 10424 10432 10440 10449 10458 10466 10473 10480 10485 10495 10502 10509 10516 10523 10530 10537 10543 10548 10555 10562 10566 10568 10577 10588 10598 10607 10612 10619 10625 10631 10641 10644 10649 10653 10657 10661 10662 10664 10665
10389 10390 10392 10396 10401 10407 10412 10419 10430 10438 10447 10455 10462 10469 10476 10485 10491 10498 10504 10511 10518 10525 10531 10538 10544 10550 10553 10557 10566 10578 10583 10592 10599 10605 10612 10619 10627 10631 10636 10640 10645 10651 10654 10655 10657
10382 10384 10386 10388 10392 10399 10403 10412 10420 10429 10437 10445 10452 10459 10469 10472 10482 10489 10496 10501 10508 10513 10519 10525 10531 10536 10541 10546 10556 10568 10572 10578 10584 10591 10597 10607 10612 10618 10622 10629 10634 10640 10644 10646 10648
10377 10376 10378 10382 10386 10391 10396 10402 10410 10419 10428 10436 10445 10454 10460 10467 10477 10481 10487 10492 10497 10502 10507 10514 10519 10523 10530 10537 10549 10553 10554 10562 10573 10578 10584 10594 10599 10604 10611 10618 10624 10629 10633 10636 10639
10373 10372 10371 10374 10379 10383 10389 10395 10403 10411 10419 10428 10438 10446 10453 10460 10467 10473 10477 10483 10487 10492 10496 10502 10508 10514 10511 10515 10525 10536 10542 10552 10561 10568 10575 10584 10589 10595 10600 10608 10613 10619 10623 10626 10629
10370 10367 10367 10368 10372 10377 10381 10386 10395 10403 10412 10420 10430 10436 10445 10452 10458 10464 10467 10473 10477 10482 10486 10492 10494 10488 10495 10503 10513 10524 10537 10547 10553 10561 10566 10571 10576 10584 10591 10596 10603 10607 10611 10615 10619
10367 10363 10362 10363 10365 10371 10375 10380 10387 10397 10406 10413 10420 10429 10438 10444 10450 10454 10458 10462 10467 10471 10472 10475 10470 10480 10488 10494 10505 10519 10530 10537 10539 10541 10548 10552 10562 10573 10580 10585 10590 10595 10599 10604 10608
10364 10360 10358 10358 10360 10365 10372 10374 10380 10390 10398 10406 10412 10420 10428 10435 10441 10444 10448 10452 10455 10457 10462 10462 10467 10473 10479 10486 10494 10506 10513 10521 10524 10528 10537 10540 10554 10563 10568 10574 10579 10583 10587 10592 10597
10365 10357 10353 10353 10356 10359 10367 10368 10374 10381 10390 10399 10405 10413 10419 10426 10427 10433 10438 10442 10445 10449 10450 10446 10454 10457 10466 10472 10481 10488 10498 10504 10507 10516 10522 10537 10545 10554 10560 10567 10569 10572 10576 10580 10584
10366 10357 10351 10348 10350 10353 10357 10362 10366 10374 10383 10393 10398 10404 10409 10415 10418 10424 10430 10432 10437 10439 10437 10440 10443 10448 10452 10458 10468 10472 10485 10492 10499 10507 10522 10529 10537 10540 10549 10552 10557 10561 10566 10569 10573
10365 10357 10350 10346 10345 10348 10350 10354 10359 10368 10374 10384 10390 10395 10400 10405 10409 10415 10419 10424 10428 10429 10429 10431 10434 10436 10441 10449 10457 10466 10477 10484 10493 10505 10520 10516 10524 10535 10538 10541 10546 10551 10554 10556 10559
10368 10358 10350 10344 10341 10342 10344 10349 10354 10358 10365 10374 10378 10384 10390 10394 10400 10405 10411 10417 10420 10421 10420 10424 10428 10429 10434 10442 10450 10455 10463 10474 10482 10493 10499 10495 10516 10528 10524 10528 10531 10535 10537 10539 10543
10370 10357 10350 10343 10338 10336 10337 10340 10345 10350 10354 10362 10368 10374 10379 10384 10390 10396 10402 10405 10410 10413 10416 10417 10420 10423 10427 10432 10438 10448 10459 10461 10470 10479 10485 10496 10511 10513 10514 10515 10515 10517 10522 10526 10530
10369 10357 10347 10339 10334 10331 10329 10331 10337 10340 10343 10348 10354 10363 10370 10373 10378 10384 10390 10398 10401 10404 10407 10409 10413 10416 10420 10423 10431 10440 10443 10449 10462 10470 10478 10488 10495 10502 10497 10496 10499 10502 10508 10513 10515
10367 10355 10344 10335 10327 10324 10320 10321 10323 10330 10333 10337 10342 10349 10357 10362 10366 10372 10380 10385 10390 10393 10396 10400 10404 10408 10411 10417 10421 10428 10434 10440 10448 10455 10467 10475 10483 10483 10482 10482 10485 10489 10491 10494 10497
10363 10351 10337 10327 10321 10315 10311 10309 10310 10314 10322 10326 10330 10334 10342 10348 10352 10358 10368 10371 10377 10380 10386 10390 10394 10398 10403 10406 10410 10415 10421 10426 10433 10446 10452 10457 10466 10466 10467 10466 10468 10471 10474 10477 10479
10358 10344 10330 10320 10311 10305 10301 10298 10297 10299 10304 10313 10316 10321 10327 10334 10341 10347 10352 10358 10363 10367 10372 10377 10385 10388 10393 10398 10404 10409 10412 10415 10421 10425 10435 10440 10456 10448 10450 10450 10453 10455 10456 10459 10462
10346 10334 10322 10310 10301 10295 10288 10286 10284 10284 10287 10293 10301 10306 10311 10317 10324 10332 10339 10344 10349 10354 10358 10362 10370 10377 10383 10387 10388 10392 10395 10398 10403 10408 10417 10423 10430 10431 10431 10434 10437 10439 10441 10443 10444
10336 10323 10308 10297 10288 10280 10276 10270 10269 10268 10272 10275 10281 10288 10294 10302 10307 10315 10322 10329 10333 10338 10343 10348 10356 10361 10366 10371 10375 10379 10383 10387 10389 10394 10397 10408 10412 10414 10413 10416 10419 10421 10422 10423 10423
10323 10309 10296 10284 10273 10265 10259 10255 10251 10252 10255 10257 10262 10264 10274 10284 10289 10296 10303 10309 10315 10322 10325 10331 10341 10346 10350 10354 10358 10362 10366 10369 10373 10378 10384 10389 10392 10395 10396 10398 10400 10401 10402 10402 10402
10308 10295 10279 10266 10257 10249 10241 10238 10234 10234 10237 10238 10240 10245 10252 10260 10269 10276 10284 10289 10298 10305 10310 10312 10318 10327 10331 10336 10342 10346 10356 10359 10361 10362 10365 10369 10371 10372 10374 10375 10376 10376 10376 10377 10378